[[{"header":{"parameterUnit":"m.s-1","parameterCategory":1,"la1":30.2991,"la2":30.254,"lo1":-89.0895,"lo2":-89.0444,"dy":0.0017,"dx":0.0017,"nx":28,"ny":28,"refTime":"2024-04-09T03:00:00:Z","depth":0,"parameterNumber":2,"parameterNumberName":"U-component_of_WINDS"},"data":[0,0,0,0,0,0,0,0,0,0,0,0,0,0,0,0,0,0,0,0,0,0,0,0,0,0,0,0,0,0,0,0,0,0,0,0,0,0,0,0,0,0,0,0,0,0,0,0,0,0,0,0,0,0,0,0,0,0,-6.9037,-6.9039,0,-6.923,-6.9232,-6.9234,-6.9279,-6.9278,-6.9277,-6.9276,-6.947,-6.9476,-6.9482,0,0,0,0,0,0,0,0,0,0,0,0,0,-6.8706,-6.8712,-6.9037,-6.9039,-6.9042,-6.9229,-6.9232,-6.9235,-6.928,-6.9278,-6.9276,-6.9275,-6.9467,-6.9475,-6.9483,0,0,0,0,0,0,0,0,0,0,0,0,0,-6.8869,-6.8714,-6.9037,-6.9087,-6.9093,-6.9229,-6.9232,-6.9235,-6.928,-6.9278,-6.9276,-6.9274,-6.9465,-6.9474,-6.9484,-6.9582,0,0,-6.9513,-6.9517,0,0,0,0,0,0,0,0,-6.886,-6.8881,-6.9077,-6.9084,-6.9091,-6.9229,-6.9187,-6.9351,-6.928,-6.9209,-6.9275,-6.9273,-6.9391,-6.9406,-6.9447,-6.9591,-6.9599,-6.9514,-6.952,-6.9524,-6.9526,0,0,0,0,0,0,0,-6.8849,-6.8873,-6.9113,-6.908,-6.9089,-6.9099,-6.912,-6.9218,-6.9308,-6.9215,-6.9219,-6.9241,-6.9394,-6.9437,-6.9451,-6.9602,-6.9513,-6.9522,-6.9528,-6.9532,-6.9836,-6.9838,0,0,0,0,0,0,-6.8829,-6.8864,-6.9107,-6.9119,-6.8969,-6.9107,-6.913,-6.9186,-6.9307,-6.9324,-6.9243,-6.9243,-6.9422,-6.944,-6.9458,-6.958,-6.9524,-6.9533,-6.9538,-6.9834,-6.9837,-6.9839,0,0,0,0,0,0,-6.8822,-6.885,-6.9099,-6.8993,-6.9025,-6.9115,-6.9177,-6.9191,-6.9234,-6.9328,-6.9344,-6.927,-6.9421,-6.9445,-6.9551,-6.9588,-6.9537,-6.9546,-6.9831,-6.9835,-6.9838,-6.9825,0,0,0,0,0,0,-6.8812,-6.8847,-6.8886,-6.8993,-6.9031,-6.9189,-6.918,-6.9196,-6.9251,-6.9253,-6.9358,-6.9374,-6.9421,-6.9536,-6.956,-6.96,-6.9553,-6.9828,-6.9833,-6.9837,-6.9822,-6.9827,-6.9832,0,0,0,0,0,-6.88,-6.8874,-6.8887,-6.8916,-6.9081,-6.9191,-6.9212,-6.9266,-6.9254,-6.9293,-6.9354,-6.9371,-6.9581,-6.9547,-6.9574,-6.9617,-6.9826,-6.9831,-6.9837,-6.982,-6.9826,-6.9832,0,0,0,0,0,0,-6.8767,-6.8888,-6.8905,-6.9016,-6.9093,-6.9198,-6.9249,-6.9271,-6.9352,-6.935,-6.9413,-6.9437,-6.9538,-6.9589,-6.9549,-6.9719,-6.9703,-6.9714,-6.9681,-6.9688,-6.9693,-6.9677,-6.9561,0,0,0,0,0,-6.8773,-6.8853,-6.8955,-6.9043,-6.9081,-6.9158,-6.9208,-6.9244,-6.9325,-6.9358,-6.9426,-6.9504,-6.9588,-6.9641,-6.9723,-6.9831,-6.9854,-6.9874,-6.9879,-6.9883,-6.989,-6.9951,-6.996,-6.9857,-6.9857,-6.9857,0,0,-6.8784,-6.8861,-6.8908,-6.9038,-6.9102,-6.9182,-6.9185,-6.927,-6.9331,-6.937,-6.9474,-6.9528,-6.9619,-6.9726,-6.9777,-6.9771,-6.9925,-6.9889,-6.9891,-6.9898,-6.9957,-6.9967,-6.9975,-6.986,-6.986,-6.9859,0,0,-6.8847,-6.8914,-6.8994,-6.9059,-6.9156,-6.9208,-6.9227,-6.933,-6.9367,-6.9473,-6.9505,-6.9577,-6.972,-6.9784,-6.9835,-6.9924,-6.9943,-6.995,-6.9973,-7.0031,-7.0039,-7.0047,-7.0077,-7.0087,-6.9958,-6.9958,-6.9958,0,-6.8849,-6.8973,-6.9033,-6.9117,-6.9173,-6.9215,-6.9296,-6.9355,-6.9474,-6.9511,-6.9504,-6.9685,-6.9749,-6.9872,-6.9894,-6.9934,-6.9957,-6.9936,-7.0034,-7.0042,-7.0049,-7.0079,-7.009,-6.9958,-6.9958,-6.9958,-6.9958,0,-6.897,-6.9056,-6.9109,-6.9224,-6.9286,-6.9368,-6.9439,-6.9495,-6.9526,-6.9578,-6.9685,-6.9765,-6.9864,-6.9896,-6.9927,-7.0023,-7.0017,-7.0021,-7.0006,-7.0058,-7.0087,-7.0099,-6.9958,-6.9958,-6.9958,-6.9958,0,0,-6.9014,-6.9162,-6.9181,-6.9233,-6.9345,-6.9411,-6.9496,-6.9594,-6.964,-6.9721,-6.9793,-6.9914,-6.9919,-6.9977,-7.0015,-7.0067,-7.0131,-7.0065,-7.0068,-7.0072,-7.0241,-7.0234,-7.0246,-7.0145,-7.0148,-7.015,-7.0232,0,-6.9089,-6.9241,-6.9298,-6.9422,-6.9501,-6.9544,-6.9618,-6.9693,-6.9745,-6.9819,-6.9877,-6.9961,-6.9962,-6.9997,-7.005,-7.0112,-7.0165,-7.0107,-7.021,-7.0213,-7.0183,-7.0262,-7.0256,-7.0329,-7.0244,-7.0246,-7.0247,0,-6.9195,-6.9279,-6.9411,-6.9513,-6.9549,-6.9614,-6.9708,-6.978,-6.9867,-6.9901,-6.9967,-7.0002,-7.0092,-7.0074,-7.0198,-7.0157,-7.0203,-7.024,-7.0245,-7.0254,-7.0231,-7.027,-7.0354,-7.0364,-7.0266,-7.0264,-7.0263,0,-6.9211,-6.9357,-6.9455,-6.9499,-6.9621,-6.9666,-6.9719,-6.9804,-6.986,-6.9943,-6.9979,-7.0072,-7.0121,-7.0192,-7.0251,-7.0233,-7.0369,-7.0356,-7.0398,-7.0396,-7.0422,-7.0419,-7.0511,-7.0456,-7.0456,-7.0456,-7.0456,0,-6.9286,-6.9365,-6.9463,-6.9523,-6.9613,-6.9678,-6.9765,-6.9821,-6.9897,-6.9968,-7.0011,-7.0077,-7.0153,-7.0228,-7.0276,-7.037,-7.0393,-7.0422,-7.0433,-7.0417,-7.0412,-7.0445,-7.044,-7.0459,-7.0458,-7.0458,-7.0457,0,-6.9317,-6.9387,-6.9496,-6.9604,-6.9633,-6.9694,-6.9786,-6.9846,-6.9901,-6.999,-7.0015,-7.01,-7.0192,-7.0259,-7.0377,-7.0409,-7.0509,-7.0522,-7.0479,-7.0484,-7.0521,-7.0516,-7.0636,-7.0654,-7.0589,-7.059,-7.059,0,-6.9359,-6.9421,-6.9536,-6.9587,-6.964,-6.9722,-6.978,-6.9847,-6.9905,-7.001,-7.0057,-7.0151,-7.023,-7.0374,-7.0446,-7.0537,-7.055,-7.0586,-7.0564,-7.0545,-7.0548,-7.0542,-7.0548,-7.0588,-7.0588,-7.0589,-7.0589,0,-6.9426,-6.9457,-6.9539,-6.9633,-6.97,-6.9777,-6.9855,-6.9894,-6.9975,-7.0038,-7.0132,-7.0194,-7.0315,-7.0408,-7.0506,-7.056,-7.0588,-7.0596,-7.061,-7.0592,-7.0564,-7.0578,-7.0485,-7.0592,-7.0592,-7.0592,-7.0591,-7.0591,-6.9462,-6.9519,-6.9609,-6.9698,-6.9764,-6.9836,-6.9897,-6.9961,-7.0041,-7.0145,-7.018,-7.0277,-7.0364,-7.0499,-7.0555,-7.0632,-7.0631,-7.0651,-7.0656,-7.066,-7.0657,-7.0555,-7.065,-7.065,-7.065,-7.065,-7.065,0,-6.9529,-6.9589,-6.9671,-6.9779,-6.9849,-6.9872,-6.9959,-7.0016,-7.0101,-7.0181,-7.0258,-7.0366,-7.0457,-7.0538,-7.0632,-7.0678,-7.0693,-7.0701,-7.0696,-7.0708,-7.0654,-7.0631,-7.0687,-7.0687,-7.0687,-7.0687,-7.0687,-7.0687,-6.9571,-6.9668,-6.9711,-6.9841,-6.9902,-6.9998,-7.0045,-7.0112,-7.0176,-7.0295,-7.0371,-7.0424,-7.0504,-7.0605,-7.0689,-7.0711,-7.0742,-7.0746,-7.077,-7.0717,-7.0712,-7.0707,-7.0686,-7.0753,-7.0753,-7.0818,-7.0818,-7.0819]},{"header":{"parameterUnit":"m.s-1","parameterCategory":1,"la1":30.2991,"la2":30.254,"lo1":-89.0895,"lo2":-89.0444,"dy":0.0017,"dx":0.0017,"nx":28,"ny":28,"refTime":"2024-04-09T03:00:00:Z","depth":0,"parameterNumber":3,"parameterNumberName":"V-component_of_WINDS"},"data":[0,0,0,0,0,0,0,0,0,0,0,0,0,0,0,0,0,0,0,0,0,0,0,0,0,0,0,0,0,0,0,0,0,0,0,0,0,0,0,0,0,0,0,0,0,0,0,0,0,0,0,0,0,0,0,0,0,0,5.8609,5.8609,0,5.8615,5.8615,5.8615,5.8601,5.86,5.86,5.8599,5.8602,5.8602,5.8603,0,0,0,0,0,0,0,0,0,0,0,0,0,5.8584,5.8584,5.8609,5.8609,5.8609,5.8615,5.8615,5.8615,5.8601,5.86,5.86,5.8599,5.8602,5.8602,5.8603,0,0,0,0,0,0,0,0,0,0,0,0,0,5.8593,5.8585,5.8609,5.8603,5.8602,5.8615,5.8615,5.8615,5.8601,5.86,5.8599,5.8599,5.8602,5.8602,5.8603,5.8621,0,0,5.8605,5.8605,0,0,0,0,0,0,0,0,5.8592,5.8594,5.8604,5.8603,5.8603,5.8607,5.8607,5.8617,5.8601,5.8601,5.8599,5.8599,5.8604,5.8604,5.8607,5.8621,5.8621,5.8605,5.8606,5.8606,5.8606,0,0,0,0,0,0,0,5.8592,5.8593,5.8611,5.8604,5.8603,5.8599,5.86,5.8609,5.8606,5.8601,5.86,5.8601,5.8603,5.8606,5.8607,5.8621,5.8605,5.8606,5.8606,5.8607,5.8653,5.8654,0,0,0,0,0,0,5.8592,5.8593,5.8611,5.8612,5.8596,5.86,5.8601,5.8606,5.8606,5.8605,5.8602,5.8601,5.8605,5.8606,5.8607,5.863,5.8606,5.8607,5.8607,5.8653,5.8654,5.8654,0,0,0,0,0,0,5.8592,5.8594,5.8611,5.8602,5.8604,5.8601,5.8607,5.8606,5.8609,5.8607,5.8606,5.8605,5.8605,5.8606,5.8618,5.863,5.8607,5.8608,5.8652,5.8653,5.8654,5.8675,0,0,0,0,0,0,5.8591,5.8594,5.8601,5.8602,5.8604,5.8623,5.8608,5.8607,5.8611,5.8609,5.861,5.8609,5.8604,5.8617,5.8619,5.863,5.8608,5.8651,5.8652,5.8654,5.8673,5.8677,5.868,0,0,0,0,0,5.859,5.8605,5.8601,5.8603,5.8613,5.8624,5.8625,5.862,5.8612,5.8619,5.8618,5.8609,5.8628,5.8619,5.8621,5.8632,5.865,5.8652,5.8654,5.8672,5.8676,5.8679,0,0,0,0,0,0,5.8603,5.8605,5.8601,5.8617,5.862,5.8621,5.863,5.8624,5.8629,5.8627,5.862,5.8621,5.8635,5.8634,5.8624,5.8651,5.8638,5.864,5.8651,5.8655,5.8658,5.8658,5.8609,0,0,0,0,0,5.8608,5.8617,5.8618,5.8632,5.8634,5.8632,5.8636,5.8633,5.8635,5.8637,5.8636,5.8639,5.8646,5.865,5.8656,5.8673,5.8674,5.8682,5.8685,5.8688,5.869,5.8701,5.8706,5.866,5.866,5.866,0,0,5.8617,5.862,5.8625,5.8634,5.8637,5.8647,5.8633,5.8643,5.865,5.8637,5.8651,5.8651,5.8653,5.8669,5.8676,5.8669,5.8703,5.869,5.8692,5.8693,5.8704,5.8708,5.8712,5.8662,5.8661,5.8661,0,0,5.864,5.8642,5.8656,5.8659,5.8664,5.8663,5.8666,5.8668,5.8669,5.8682,5.8674,5.8682,5.8693,5.8696,5.8699,5.8726,5.8719,5.8728,5.8745,5.8756,5.876,5.8763,5.8774,5.8778,5.873,5.873,5.873,0,5.8651,5.8666,5.8662,5.8674,5.8679,5.8671,5.8684,5.8687,5.8693,5.8697,5.8689,5.8706,5.8706,5.8724,5.8731,5.8733,5.8737,5.8728,5.876,5.8763,5.8766,5.8776,5.8781,5.8731,5.8731,5.8731,5.8731,0,5.868,5.8691,5.8701,5.871,5.8715,5.8728,5.8726,5.8732,5.8729,5.8729,5.8744,5.8745,5.8752,5.8756,5.8751,5.8773,5.8769,5.8761,5.8748,5.8771,5.8781,5.8785,5.8733,5.8733,5.8732,5.8732,0,0,5.871,5.8719,5.8722,5.8727,5.8733,5.8741,5.8754,5.8763,5.8769,5.8774,5.8785,5.8796,5.879,5.8793,5.8789,5.8799,5.8823,5.8789,5.8789,5.8797,5.885,5.8857,5.8862,5.8818,5.8819,5.882,5.885,0,5.8734,5.8757,5.8756,5.8777,5.8788,5.8782,5.8793,5.8798,5.8798,5.8807,5.8807,5.8817,5.8806,5.8809,5.8818,5.8818,5.8834,5.8816,5.8829,5.8829,5.883,5.8867,5.8874,5.8902,5.8854,5.8854,5.8855,0,5.8764,5.8773,5.8797,5.8804,5.8808,5.8819,5.8828,5.8837,5.8843,5.8843,5.8848,5.8844,5.8857,5.8843,5.8862,5.885,5.8855,5.8857,5.8858,5.8859,5.8844,5.887,5.8911,5.8916,5.8861,5.886,5.886,0,5.8786,5.8803,5.882,5.8824,5.8832,5.884,5.8844,5.8849,5.8856,5.8864,5.8868,5.8877,5.8882,5.8889,5.8887,5.8877,5.8907,5.8893,5.8908,5.8908,5.8914,5.8914,5.8958,5.8916,5.8916,5.8916,5.8916,0,5.8813,5.8828,5.8831,5.8841,5.8858,5.8857,5.8873,5.8876,5.8882,5.8893,5.8887,5.8897,5.8893,5.8904,5.8902,5.8919,5.8921,5.8921,5.8921,5.8923,5.8923,5.8926,5.8925,5.8917,5.8917,5.8917,5.8916,0,5.884,5.8842,5.886,5.8868,5.887,5.8882,5.8889,5.8899,5.89,5.8914,5.8918,5.8919,5.8931,5.893,5.8943,5.8942,5.8964,5.896,5.8962,5.8962,5.8978,5.8977,5.9026,5.9033,5.8986,5.8986,5.8987,0,5.8858,5.887,5.8879,5.8887,5.8892,5.8904,5.8912,5.8911,5.8919,5.8929,5.8938,5.895,5.896,5.898,5.8981,5.8992,5.8989,5.9006,5.8991,5.8993,5.8992,5.8991,5.8993,5.9009,5.9009,5.901,5.901,0,5.889,5.8891,5.8902,5.8915,5.8925,5.8934,5.8943,5.895,5.895,5.8959,5.8973,5.8981,5.8996,5.9008,5.9019,5.9022,5.9017,5.9015,5.902,5.9022,5.9023,5.9025,5.8972,5.9014,5.9014,5.9013,5.9013,5.9013,5.8913,5.8925,5.8934,5.8948,5.8955,5.8964,5.8975,5.8979,5.8991,5.9004,5.9003,5.9019,5.9026,5.904,5.9045,5.9057,5.9051,5.9057,5.9058,5.906,5.9063,5.9021,5.9059,5.9059,5.9058,5.9058,5.9058,0,5.8947,5.8953,5.8966,5.898,5.8991,5.8987,5.8997,5.9007,5.9021,5.9029,5.904,5.9057,5.907,5.9074,5.9086,5.9096,5.9094,5.9099,5.9099,5.91,5.9067,5.9063,5.9101,5.9101,5.9101,5.9101,5.9101,5.9101,5.8965,5.8985,5.8988,5.9012,5.9018,5.9035,5.9042,5.905,5.9057,5.9077,5.9088,5.9092,5.9099,5.9112,5.9124,5.9125,5.913,5.9137,5.9137,5.9106,5.9102,5.9098,5.9094,5.9138,5.9138,5.917,5.917,5.917]}]]